Spearfish, SD

4:05 AM MST on January 19, 2017 (GMT -0700)
Black Hills-Ice

Weather History for KSPF - January, 2013

Change the Weather History Date:

Sunday, January 27, 2013

  Actual Average (KEFC) Record (KEFC)
Temperature  
Mean Temperature 36 °F -  
Max Temperature 41 °F 35 °F 60 °F (1989)
Min Temperature 30 °F 9 °F -24 °F (1963)
Degree Days  
Heating Degree Days 28    
Moisture  
Dew Point 27 °F    
Average Humidity 72    
Maximum Humidity 100    
Minimum Humidity 56    
Precipitation  
Precipitation 0.11 in - - ()
Sea Level Pressure  
Sea Level Pressure 29.69 in    
Wind  
Wind Speed 6 mph (WNW)    
Max Wind Speed 16 mph    
Max Gust Speed 21 mph    
Visibility 10 miles    
Events Snow    
Averages and records for this station are not official NWS values.
T = Trace of Precipitation, MM = Missing Value Source: NWS Daily Summary

Daily Weather History Graph

Daily Weather History Graph

Search for Another Location

Airport or City:

Trip Planner

Search our weather history database for the weather conditions in past years. The results will help you decide how hot, cold, wet, or windy it might be!

Date:

Astronomy

Jan. 27, 2013 Rise Set
Actual Time 8:18 AM CST 5:57 PM CST
Civil Twilight 7:47 AM CST 6:29 PM CST
Nautical Twilight 7:12 AM CST 7:04 PM CST
Astronomical Twilight 6:37 AM CST 7:38 PM CST
Moon 6:58 PM CST (1/27) 8:09 AM CST (1/27)
Length of Visible Light 10h 41m
Length of Day
9h 39m
Full, 100% of the Moon is Illuminated
Jan 27
Full
Feb 3
Last Quarter
Feb 10
New
Feb 17
First Quarter
Feb 25
Full

Hourly Weather History & Observations

Time (CST) Temp. Windchill Dew Point Humidity Pressure Visibility Wind Dir Wind Speed Gust Speed Precip Events Conditions
12:35 AM 33.8 °F 28.6 °F 23.0 °F 65% 29.73 in 10.0 mi WSW 5.8 mph - N/A   Clear
12:55 AM 37.4 °F 34.9 °F 23.0 °F 56% 29.72 in 10.0 mi West 3.5 mph - N/A   Clear
1:15 AM 35.6 °F 32.8 °F 24.8 °F 65% 29.72 in 10.0 mi SW 3.5 mph - N/A   Clear
1:35 AM 37.4 °F - 23.0 °F 56% 29.71 in 10.0 mi Calm Calm - N/A   Clear
1:55 AM 37.4 °F 31.4 °F 24.8 °F 60% 29.70 in 10.0 mi SSW 8.1 mph - N/A   Clear
2:15 AM 37.4 °F - 24.8 °F 60% 29.70 in 10.0 mi Calm Calm - N/A   Clear
2:35 AM 33.8 °F 30.8 °F 24.8 °F 70% 29.70 in 10.0 mi WNW 3.5 mph - N/A   Clear
2:55 AM 37.4 °F 32.8 °F 24.8 °F 60% 29.69 in 10.0 mi West 5.8 mph - N/A   Clear
3:15 AM 37.4 °F - 23.0 °F 56% 29.68 in 10.0 mi Calm Calm - N/A   Clear
3:35 AM 39.2 °F - 24.8 °F 56% 29.67 in 10.0 mi Calm Calm - N/A   Clear
3:55 AM 35.6 °F - 24.8 °F 65% 29.67 in 10.0 mi Calm Calm - N/A   Clear
4:15 AM 39.2 °F 35.0 °F 24.8 °F 56% 29.66 in 10.0 mi SW 5.8 mph - N/A   Clear
4:35 AM 33.8 °F - 24.8 °F 70% 29.65 in 10.0 mi Calm Calm - N/A   Clear
4:55 AM 35.6 °F 32.8 °F 24.8 °F 65% 29.65 in 10.0 mi SW 3.5 mph - N/A   Clear
5:35 AM 37.4 °F 34.9 °F 24.8 °F 60% 29.65 in 10.0 mi WSW 3.5 mph - N/A   Clear
5:55 AM 35.6 °F - 24.8 °F 65% 29.64 in 10.0 mi Calm Calm - N/A   Clear
6:15 AM 33.8 °F 30.8 °F 24.8 °F 70% 29.64 in 10.0 mi SW 3.5 mph - N/A   Clear
6:35 AM 35.6 °F 31.7 °F 24.8 °F 65% 29.64 in 10.0 mi WSW 4.6 mph - N/A   Clear
6:55 AM 33.8 °F 28.6 °F 24.8 °F 70% 29.64 in 10.0 mi WSW 5.8 mph - N/A   Clear
7:15 AM 33.8 °F 28.6 °F 26.6 °F 75% 29.65 in 10.0 mi WSW 5.8 mph - N/A   Clear
7:35 AM 35.6 °F 31.7 °F 26.6 °F 70% 29.65 in 10.0 mi SSW 4.6 mph - N/A   Clear
7:55 AM 35.6 °F 32.8 °F 26.6 °F 70% 29.65 in 10.0 mi NW 3.5 mph - N/A   Partly Cloudy
8:15 AM 37.4 °F 32.8 °F 26.6 °F 65% 29.65 in 10.0 mi West 5.8 mph - N/A   Partly Cloudy
8:35 AM 37.4 °F 34.9 °F 26.6 °F 65% 29.66 in 10.0 mi SW 3.5 mph - N/A   Clear
8:55 AM 37.4 °F - 26.6 °F 65% 29.66 in 10.0 mi Calm Calm - N/A   Partly Cloudy
9:15 AM 39.2 °F - 28.4 °F 65% 29.66 in 10.0 mi Calm Calm - N/A   Partly Cloudy
9:35 AM 39.2 °F 33.0 °F 26.6 °F 61% 29.67 in 10.0 mi WNW 9.2 mph - N/A   Partly Cloudy
9:55 AM 35.6 °F 29.9 °F 26.6 °F 70% 29.67 in 10.0 mi West 6.9 mph - N/A   Mostly Cloudy
10:15 AM 37.4 °F 32.1 °F 26.6 °F 65% 29.67 in 10.0 mi West 6.9 mph - N/A   Mostly Cloudy
10:35 AM 35.6 °F 27.5 °F 24.8 °F 65% 29.67 in 10.0 mi WNW 11.5 mph - N/A   Mostly Cloudy
10:55 AM 37.4 °F 32.1 °F 24.8 °F 60% 29.68 in 10.0 mi WNW 6.9 mph - N/A   Scattered Clouds
11:15 AM 37.4 °F 32.1 °F 24.8 °F 60% 29.69 in 10.0 mi WNW 6.9 mph - N/A   Clear
11:35 AM 39.2 °F 33.6 °F 24.8 °F 56% 29.68 in 10.0 mi WNW 8.1 mph - N/A   Clear
11:55 AM 39.2 °F 34.2 °F 24.8 °F 56% 29.68 in 10.0 mi West 6.9 mph - N/A   Clear
12:15 PM 39.2 °F 35.0 °F 26.6 °F 61% 29.68 in 10.0 mi NW 5.8 mph - N/A   Clear
12:35 PM 41.0 °F 35.2 °F 26.6 °F 57% 29.67 in 10.0 mi NW 9.2 mph - N/A   Clear
12:55 PM 39.2 °F 33.6 °F 26.6 °F 61% 29.67 in 10.0 mi NNW 8.1 mph - N/A   Clear
1:15 PM 41.0 °F 36.4 °F 26.6 °F 57% 29.66 in 10.0 mi NW 6.9 mph - N/A   Clear
1:35 PM 41.0 °F 36.4 °F 26.6 °F 57% 29.66 in 10.0 mi WNW 6.9 mph - N/A   Clear
1:55 PM 41.0 °F 35.2 °F 28.4 °F 61% 29.66 in 10.0 mi NW 9.2 mph - N/A   Clear
2:15 PM 41.0 °F 34.7 °F 28.4 °F 61% 29.67 in 10.0 mi NW 10.4 mph - N/A   Clear
2:35 PM 39.2 °F 32.5 °F 28.4 °F 65% 29.67 in 10.0 mi NW 10.4 mph - N/A   Clear
2:55 PM 39.2 °F 32.0 °F 28.4 °F 65% 29.68 in 10.0 mi NNW 11.5 mph - N/A   Clear
3:15 PM 37.4 °F 30.3 °F 28.4 °F 70% 29.68 in 10.0 mi NNW 10.4 mph - N/A   Clear
3:35 PM 37.4 °F 29.8 °F 28.4 °F 70% 29.68 in 10.0 mi NNW 11.5 mph - N/A   Clear
3:55 PM 35.6 °F 27.5 °F 28.4 °F 75% 29.69 in 10.0 mi NNW 11.5 mph - N/A   Clear
4:15 PM 35.6 °F 28.0 °F 28.4 °F 75% 29.70 in 10.0 mi NNW 10.4 mph - N/A   Clear
4:35 PM 35.6 °F 28.0 °F 28.4 °F 75% 29.71 in 10.0 mi NW 10.4 mph - N/A   Clear
4:55 PM 35.6 °F 27.5 °F 28.4 °F 75% 29.71 in 10.0 mi NW 11.5 mph - N/A   Clear
5:15 PM 33.8 °F 24.8 °F 28.4 °F 81% 29.71 in 10.0 mi NW 12.7 mph - N/A   Mostly Cloudy
5:35 PM 32.0 °F 24.2 °F 28.4 °F 87% 29.72 in 10.0 mi NW 9.2 mph - N/A   Overcast
5:55 PM 32.0 °F 21.2 °F 28.4 °F 87% 29.72 in 10.0 mi WNW 16.1 mph 20.7 mph N/A   Mostly Cloudy
6:15 PM 32.0 °F 22.1 °F 28.4 °F 87% 29.73 in 10.0 mi NW 13.8 mph 20.7 mph N/A   Mostly Cloudy
6:35 PM 32.0 °F 22.5 °F 28.4 °F 87% 29.74 in 10.0 mi NW 12.7 mph 20.7 mph N/A   Overcast
6:55 PM 32.0 °F 22.5 °F 28.4 °F 87% 29.74 in 10.0 mi WNW 12.7 mph 19.6 mph N/A   Overcast
7:15 PM 32.0 °F 23.0 °F 28.4 °F 87% 29.75 in 10.0 mi WNW 11.5 mph - N/A   Mostly Cloudy
7:35 PM 32.0 °F 24.2 °F 30.2 °F 93% 29.75 in 10.0 mi WNW 9.2 mph - N/A   Partly Cloudy
7:55 PM 32.0 °F 26.4 °F 30.2 °F 93% 29.74 in 9.0 mi West 5.8 mph - N/A   Clear
8:15 PM 32.0 °F 26.4 °F 30.2 °F 93% 29.74 in 3.0 mi WNW 5.8 mph - N/A Snow Light Snow
8:35 PM 32.0 °F 25.6 °F 32.0 °F 100% 29.74 in 2.5 mi WNW 6.9 mph - 0.07 in Snow Light Snow
8:55 PM 32.0 °F 26.4 °F 32.0 °F 100% 29.74 in 2.5 mi NW 5.8 mph - 0.11 in Snow Light Snow
9:15 PM 32.0 °F 25.6 °F 32.0 °F 100% 29.73 in 8.0 mi NW 6.9 mph - N/A   Mostly Cloudy
9:35 PM 32.0 °F 25.6 °F 32.0 °F 100% 29.74 in 8.0 mi NW 6.9 mph - N/A   Overcast
9:55 PM 32.0 °F 26.4 °F 30.2 °F 93% 29.74 in 9.0 mi NNW 5.8 mph - N/A   Mostly Cloudy
10:15 PM 32.0 °F 25.6 °F 30.2 °F 93% 29.74 in 10.0 mi WNW 6.9 mph - N/A   Scattered Clouds
10:35 PM 32.0 °F 26.4 °F 30.2 °F 93% 29.74 in 10.0 mi West 5.8 mph - N/A   Clear
10:55 PM 32.0 °F 26.4 °F 28.4 °F 87% 29.74 in 10.0 mi West 5.8 mph - N/A   Clear
11:15 PM 32.0 °F 27.5 °F 28.4 °F 87% 29.74 in 10.0 mi West 4.6 mph - N/A   Clear
11:35 PM 32.0 °F 27.5 °F 28.4 °F 87% 29.75 in 9.0 mi West 4.6 mph - N/A   Partly Cloudy
11:55 PM 30.2 °F 26.7 °F 26.6 °F 86% 29.74 in 9.0 mi WSW 3.5 mph - N/A Snow Light Snow